Дата Пункты Температура Давл., мм. Влажн., % Ветер Погодные явления
Воздуха Воды Направл. Скорость
05.02.18 11:00 Одесса 1.0 4.0 764 64 С-З 2 11 ЧАСОВ
05.02.18 05:00 Одесса 1.0 4.0 761 74 С-З 2 05 ЧАСОВ
05.02.18 02:00 Одесса 2.0 4.0 759 73 С-З 2 02 ЧАСА
04.02.18 11:00 Одесса 2.0 4.0 757 68 С-З 5 23 ЧАСА
04.02.18 08:00 Одесса 3.0 4.0 755 75 С-З 3 20 ЧАСОВ
04.02.18 05:00 Одесса 4.0 4.0 753 76 С-З 1 17 ЧАСОВ
04.02.18 02:00 Одесса 6.0 4.0 751 62 С-З 3 14 ЧАСОВ
04.02.18 11:00 Одесса 9.0 4.0 750 78 С-З 3 11 ЧАСОВ
04.02.18 08:00 Одесса 10.0 4.0 749 84 Ю-З 3 08 ЧАСОВ
04.02.18 05:00 Одесса 8.0 4.0 747 88 Ю 2 05 ЧАСОВ
04.02.18 02:00 Одесса 8.0 4.0 747 90 З 3 02 ЧАСА
03.02.18 11:00 Одесса 8.0 4.0 748 91 Ю-З 6 23 ЧАСА
03.02.18 08:00 Одесса 7.0 4.0 749 94 Ю-З 3 20 ЧАСОВ
03.02.18 05:00 Одесса 7.0 4.0 750 94 Ю-З 3 17 ЧАСОВ
03.02.18 02:00 Одесса 7.0 4.0 751 90 Ю 3 14 ЧАСОВ
03.02.18 11:00 Одесса 8.0 4.0 753 82 Ю-З 2 11 ЧАСОВ
03.02.18 08:00 Одесса 6.0 4.0 753 89 Ю-З 4 08 ЧАСОВ
03.02.18 05:00 Одесса 6.0 5.0 754 96 Ю-З 2 05 ЧАСОВ
03.02.18 02:00 Одесса 5.0 5.0 755 96 Ю 2 02 ЧАСА
02.02.18 11:00 Одесса 6.0 6.0 755 86 Ю-З 1 23 ЧАСА
Количество строк
1 2 3 4 5 6 7 8 9 10
Page 6 of 330